Stations météo

réclame
Mon MeteoGroup
Vigo Peinador, Espagne (8045): Température de l'air & dewpoint: 09.08.2018 01:00:00 - 15.08.2018 01:00:00 (CEST)Vigo Peinador, Espagne (8045): Vitesse du vent: 09.08.2018 01:00:00 - 15.08.2018 01:00:00 (CEST)Vigo Peinador, Espagne (8045): Direction du vent: 09.08.2018 01:00:00 - 15.08.2018 01:00:00 (CEST)Vigo Peinador, Espagne (8045): reduced air pressure: 09.08.2018 01:00:00 - 15.08.2018 01:00:00 (CEST)Vigo Peinador, Espagne (8045): visibility: 09.08.2018 01:00:00 - 15.08.2018 01:00:00 (CEST)
Date & Time tt [°C] td [°C] ff [km/h] ff [knt] dd ppp [hPa] vv [km]
15.08.2018 01:00:00 21,3 17,1 0 0 N 1016,9 10
15.08.2018 00:00:00 22,7 16,3 8 4 NNE 1016,8 10
14.08.2018 23:00:00 23,3 16,6 11 6 NNE 1016,8 10
14.08.2018 22:00:00 25,3 16,4 15 8 N 1016,2 10
14.08.2018 21:00:00 26,2 16,5 9 5 NNE 1015,9 10
14.08.2018 20:00:00 28,9 17,1 11 6 W 1015,6 10
14.08.2018 19:00:00 30,1 17,2 13 7 W 1015,8 10
14.08.2018 18:00:00 30,4 16,6 15 8 W 1016,0 10
14.08.2018 17:00:00 31,5 16,3 11 6 W 1016,1 10
14.08.2018 16:00:00 31,7 12,5 5 3 - 1016,6 10
14.08.2018 15:00:00 29,8 14,0 5 3 N 1017,2 10
14.08.2018 14:00:00 28,0 15,1 5 3 NE 1017,7 10
14.08.2018 13:00:00 26,9 16,7 5 3 - 1018,4 10
14.08.2018 12:00:00 23,3 15,0 5 3 - 1018,8 10
14.08.2018 11:00:00 21,8 14,9 8 4 E 1019,0 40
14.08.2018 10:00:00 19,4 14,7 5 3 ESE 1019,0 10
14.08.2018 09:00:00 17,0 14,3 4 2 - 1019,2 10
14.08.2018 08:00:00 13,2 13,2 0 0 N 1019,3 10
14.08.2018 07:00:00 13,6 13,6 2 1 - 1018,8 10
14.08.2018 06:00:00 13,8 13,8 9 5 NE 1018,7 10
14.08.2018 05:00:00 15,1 14,4 13 7 N 1018,7 10
14.08.2018 04:00:00 14,9 14,3 8 4 N 1018,8 10
14.08.2018 03:00:00 15,1 14,6 9 5 NNE 1019,1 10
14.08.2018 02:00:00 16,2 14,5 16 9 N 1018,9 40
14.08.2018 01:00:00 16,5 14,9 18 10 N 1018,8 10
14.08.2018 00:00:00 17,2 15,2 21 11 N 1018,7 10
13.08.2018 23:00:00 18,0 16,0 15 8 N 1018,4 10
13.08.2018 22:00:00 19,0 17,0 13 7 N 1018,0 10
13.08.2018 21:00:00 20,3 16,5 13 7 N 1017,7 10
13.08.2018 20:00:00 21,4 16,0 15 8 NNW 1017,5 10
13.08.2018 19:00:00 22,1 15,7 15 8 NNW 1017,7 10
13.08.2018 18:00:00 22,4 15,9 16 9 N 1017,8 10
13.08.2018 17:00:00 22,6 15,2 13 7 N 1018,0 10
13.08.2018 16:00:00 21,4 16,1 11 6 NE 1018,7 10
13.08.2018 15:00:00 22,3 15,0 9 5 NNE 1018,4 10
13.08.2018 14:00:00 20,9 16,2 5 3 - 1018,9 10
13.08.2018 13:00:00 20,1 16,2 11 6 ENE 1019,1 10
13.08.2018 12:00:00 18,6 16,6 8 4 WSW 1019,2 10
13.08.2018 11:00:00 18,1 16,2 5 3 NE 1019,0 10
13.08.2018 10:00:00 16,8 16,0 0 0 N 1018,9 10
13.08.2018 09:00:00 15,7 15,7 0 0 N 1018,6 10
13.08.2018 08:00:00 15,7 15,5 4 2 NE 1018,3 20
13.08.2018 07:00:00 16,0 15,3 0 0 N 1017,7 10
13.08.2018 06:00:00 15,8 15,3 2 1 WNW 1017,7 10
13.08.2018 05:00:00 15,9 14,9 5 3 NNW 1017,6 9
13.08.2018 04:00:00 16,1 14,5 9 5 NNW 1017,7 9
13.08.2018 03:00:00 16,2 15,9 5 3 NNW 1018,0 9
13.08.2018 02:00:00 15,9 15,9 8 4 N 1018,1 7
13.08.2018 01:00:00 16,3 16,3 8 4 N 1018,2 7
13.08.2018 00:00:00 17,2 17,2 2 1 - 1018,0 7
12.08.2018 23:00:00 17,3 17,2 2 1 - 1018,2 7
12.08.2018 22:00:00 17,2 17,2 4 2 - 1017,5 7
12.08.2018 21:00:00 17,5 17,5 4 2 - 1017,2 2,0
12.08.2018 20:00:00 18,0 18,0 16 9 W 1017,1 1,5
12.08.2018 19:00:00 18,4 18,4 11 6 W 1017,5 0,4
12.08.2018 18:00:00 19,3 19,3 13 7 W 1017,4 0,8
12.08.2018 17:00:00 20,6 19,6 13 7 W 1017,6 7
12.08.2018 16:00:00 20,3 19,7 11 6 WSW 1017,9 6
12.08.2018 15:00:00 21,8 17,9 22 12 W 1018,0 10
12.08.2018 14:00:00 23,3 18,2 15 8 WSW 1017,9 20
12.08.2018 13:00:00 20,3 18,0 8 4 WSW 1018,4 10
12.08.2018 12:00:00 21,8 17,2 4 2 ENE 1018,1 10
12.08.2018 11:00:00 19,6 15,5 8 4 W 1018,0 10
12.08.2018 10:00:00 19,9 16,4 4 2 - 1017,7 10
12.08.2018 09:00:00 18,1 16,3 2 1 - 1017,8 10
12.08.2018 08:00:00 15,0 14,5 4 2 - 1017,9 10
12.08.2018 07:00:00 15,1 13,3 4 2 NNW 1017,7 10
12.08.2018 06:00:00 15,1 13,6 5 3 W 1017,8 10
12.08.2018 05:00:00 15,3 12,1 4 2 - 1018,0 10
12.08.2018 04:00:00 15,7 12,5 2 1 - 1018,4 10
12.08.2018 03:00:00 16,4 14,4 5 3 WNW 1018,5 10
12.08.2018 02:00:00 16,7 16,2 4 2 - 1019,0 10
12.08.2018 01:00:00 17,3 16,2 5 3 NW 1019,3 10
12.08.2018 00:00:00 17,9 17,1 5 3 N 1019,7 10
11.08.2018 23:00:00 18,5 16,3 5 3 NW 1019,5 10
11.08.2018 22:00:00 19,5 16,1 5 3 NW 1019,1 10
11.08.2018 21:00:00 21,5 14,9 15 8 W 1018,6 10
11.08.2018 20:00:00 21,6 15,7 21 11 W 1019,0 10
11.08.2018 19:00:00 24,4 15,6 21 11 WSW 1018,9 10
11.08.2018 18:00:00 25,1 15,3 21 11 WSW 1019,0 10
11.08.2018 17:00:00 26,3 15,4 21 11 W 1019,3 10
11.08.2018 16:00:00 26,9 15,5 16 9 W 1019,7 10
11.08.2018 15:00:00 28,1 13,1 15 8 W 1019,8 10
11.08.2018 14:00:00 28,0 14,0 8 4 NE 1020,0 10
11.08.2018 13:00:00 27,0 14,1 4 2 E 1020,3 10
11.08.2018 12:00:00 25,0 13,5 5 3 - 1020,6 10
11.08.2018 11:00:00 21,3 14,4 8 4 - 1021,1 10
11.08.2018 10:00:00 18,4 14,3 9 5 - 1021,6 10
11.08.2018 09:00:00 17,3 14,9 8 4 SSW 1021,6 10
11.08.2018 08:00:00 15,7 14,6 5 3 SW 1021,5 10
11.08.2018 07:00:00 16,0 12,8 5 3 SW 1021,4 10
11.08.2018 06:00:00 15,2 13,2 2 1 - 1021,3 10
11.08.2018 05:00:00 16,0 12,9 0 0 N 1021,6 10
11.08.2018 04:00:00 16,3 13,0 0 0 N 1021,7 10
11.08.2018 03:00:00 17,8 13,1 5 3 NNW 1022,1 10
11.08.2018 02:00:00 17,5 15,3 2 1 - 1022,5 10
11.08.2018 01:00:00 17,8 15,6 5 3 NNE 1022,6 10
11.08.2018 00:00:00 18,4 15,8 9 5 NNE 1022,3 10
10.08.2018 23:00:00 19,6 15,9 8 4 NNE 1022,3 10
10.08.2018 22:00:00 20,9 15,1 11 6 NNE 1021,5 10
10.08.2018 21:00:00 23,7 14,7 13 7 N 1021,1 10
10.08.2018 20:00:00 23,8 15,3 13 7 W 1021,1 10
10.08.2018 19:00:00 24,2 14,9 15 8 W 1021,3 10
10.08.2018 18:00:00 25,7 15,2 11 6 W 1021,2 10
10.08.2018 17:00:00 26,0 13,9 9 5 - 1021,4 10
10.08.2018 16:00:00 25,7 14,0 5 3 N 1021,9 10
10.08.2018 15:00:00 25,1 13,7 8 4 - 1022,5 10
10.08.2018 14:00:00 24,7 12,0 8 4 - 1022,5 10
10.08.2018 13:00:00 24,0 13,3 9 5 E 1023,0 10
10.08.2018 12:00:00 21,9 13,1 5 3 - 1023,2 10
10.08.2018 11:00:00 18,2 11,8 5 3 S 1023,5 10
10.08.2018 10:00:00 16,5 11,1 5 3 - 1023,5 10
10.08.2018 09:00:00 14,9 11,3 5 3 E 1023,7 10
10.08.2018 08:00:00 11,6 10,2 5 3 NE 1023,7 10
10.08.2018 07:00:00 12,3 10,0 8 4 N 1023,5 10
10.08.2018 06:00:00 12,7 9,6 9 5 N 1023,6 10
10.08.2018 05:00:00 12,9 9,5 13 7 N 1023,9 10
10.08.2018 04:00:00 12,6 11,2 5 3 NE 1024,0 10
10.08.2018 03:00:00 13,5 11,0 9 5 NNE 1024,1 10
10.08.2018 02:00:00 14,5 10,9 18 10 N 1024,5 10
10.08.2018 01:00:00 15,0 10,4 22 12 NNE 1024,5 10
10.08.2018 00:00:00 15,8 9,5 18 10 NNE 1024,2 10
09.08.2018 23:00:00 16,6 10,4 18 10 NNE 1023,8 10
09.08.2018 22:00:00 18,0 10,3 22 12 N 1022,8 10
09.08.2018 21:00:00 19,6 10,8 21 11 N 1022,1 10
09.08.2018 20:00:00 20,8 12,7 15 8 WNW 1021,9 10
09.08.2018 19:00:00 20,8 12,7 22 12 WNW 1021,8 10
09.08.2018 18:00:00 21,6 13,0 18 10 WNW 1021,8 10
09.08.2018 17:00:00 22,8 10,0 15 8 N 1021,9 10
09.08.2018 16:00:00 22,1 11,4 15 8 N 1022,4 10
09.08.2018 15:00:00 22,3 11,7 13 7 N 1022,4 10
09.08.2018 14:00:00 20,3 11,6 16 9 N 1022,6 10
09.08.2018 13:00:00 20,3 11,6 16 9 N 1022,6 10
09.08.2018 12:00:00 19,5 13,7 13 7 N 1022,4 10
09.08.2018 11:00:00 17,5 13,9 8 4 NNE 1022,0 10
09.08.2018 10:00:00 16,9 15,4 8 4 - 1021,7 10
09.08.2018 09:00:00 15,3 15,0 8 4 NNE 1021,3 10
09.08.2018 08:00:00 13,0 13,0 5 3 N 1021,2 10
09.08.2018 07:00:00 13,1 13,1 13 7 N 1020,3 10
09.08.2018 06:00:00 13,5 13,5 9 5 NNE 1019,8 10
09.08.2018 05:00:00 14,1 14,1 15 8 N 1019,1 10
09.08.2018 04:00:00 14,3 14,3 13 7 NNE 1018,6 10
09.08.2018 03:00:00 14,7 14,7 16 9 NNE 1018,2 9
09.08.2018 02:00:00 15,9 15,9 8 4 S 1017,6 6
09.08.2018 01:00:00 16,1 16,1 8 4 SW 1017,3 8

tt = Température de l'air
td = dewpoint
ff = Vitesse du vent
dd = Direction du vent
ppp = reduced air pressure
vv = visibility

stations d'obs. à proximité